Location: Newark
(45.2500°N, 7.5833°E)
Time: 01:58:33
(UTC+00:00)

SR - Pass Details

Date: 31 January 2020
Orbit: 575 x 881 km, 66.7° (Epoch: 21 February)

Event Time Altitude Azimuth Distance (km) Brightness Sun altitude
Exits shadow 02:56:50 15° 39° (NE) 2,059 ? -41.2°
Drops below altitude 10° 02:59:10 10° 65° (ENE) 2,345 ? -40.9°
Sets 03:02:32 0° 88° (E) 3,202 ? -40.3°
